Namest Nad Oslav, Czech Republic

5:58 AM CET on February 14, 2016 (GMT +0100)
Namest

Weather History for LKNA - March, 2013

Change the Weather History Date:

Monday, March 11, 2013

  Actual Average Record
Temperature  
Mean Temperature 34 °F -  
Max Temperature 41 °F - - ()
Min Temperature 28 °F - - ()
Degree Days  
Heating Degree Days 30    
Moisture  
Dew Point 33 °F    
Average Humidity 89    
Maximum Humidity 100    
Minimum Humidity 65    
Precipitation  
Precipitation 0.00 in - - ()
Sea Level Pressure  
Sea Level Pressure 29.50 in    
Wind  
Wind Speed 6 mph ()    
Max Wind Speed 14 mph    
Max Gust Speed -    
Visibility 5.4 miles    
Events Fog    
T = Trace of Precipitation, MM = Missing Value Source: Averaged Metar Reports

Daily Weather History Graph

Daily Weather History Graph

Search for Another Location

Airport or City:

Trip Planner

Search our weather history database for the weather conditions in past years. The results will help you decide how hot, cold, wet, or windy it might be!

Date:

Astronomy

Mar. 11, 2013 Rise Set
Actual Time 6:17 AM CET 5:54 PM CET
Civil Twilight 5:45 AM CET 6:26 PM CET
Nautical Twilight 5:08 AM CET 7:03 PM CET
Astronomical Twilight 4:31 AM CET 7:40 PM CET
Moon 5:40 AM CET (3/11) 5:51 PM CET (3/11)
Length of Visible Light 12h 40m
Length of Day
11h 37m
Waning Crescent, 0% of the Moon is Illuminated
Mar 11
Waning Crescent
Mar 11
New
Mar 19
First Quarter
Mar 27
Full
Apr 3
Last Quarter

Hourly Weather History & Observations

Time (CET) Temp. Windchill Dew Point Humidity Pressure Visibility Wind Dir Wind Speed Gust Speed Precip Events Conditions
12:00 AM 41.0 °F - 41.0 °F 100% 29.44 in 0.1 mi Variable 2.3 mph - N/A Fog Fog
1:00 AM 41.0 °F 38.0 °F 41.0 °F 100% 29.44 in 0.1 mi SE 4.6 mph - N/A Fog Fog
2:00 AM 41.0 °F 38.0 °F 41.0 °F 100% 29.44 in 0.1 mi SSW 4.6 mph - N/A Fog Fog
3:26 AM 39.2 °F 35.9 °F 39.2 °F 100% 29.44 in 6.2 mi WSW 4.6 mph - N/A   Mostly Cloudy
4:00 AM 37.4 °F 33.8 °F 37.4 °F 100% 29.44 in 6.2 mi West 4.6 mph - N/A Fog Unknown
5:00 AM 37.4 °F 31.4 °F 37.4 °F 100% 29.44 in 6.2 mi WNW 8.1 mph - N/A Fog Unknown
6:00 AM 35.6 °F 30.7 °F 35.6 °F 100% 29.44 in 6.2 mi West 5.8 mph - N/A Fog Unknown
7:00 AM 37.4 °F 32.8 °F 37.4 °F 100% 29.44 in 6.2 mi West 5.8 mph - N/A   Mostly Cloudy
8:30 AM 39.2 °F 33.0 °F 39.2 °F 100% 29.47 in 6.2 mi NW 9.2 mph - N/A   Mostly Cloudy
9:00 AM 37.4 °F 30.3 °F 37.4 °F 100% 29.47 in 6.2 mi NNW 10.4 mph - N/A   Scattered Clouds
9:30 AM 35.6 °F 26.6 °F 33.8 °F 93% 29.50 in 6.2 mi NNW 13.8 mph - N/A   Mostly Cloudy
10:00 AM 35.6 °F 28.0 °F 33.8 °F 93% 29.50 in 6.2 mi NNW 10.4 mph - N/A   Mostly Cloudy
11:00 AM 35.6 °F 27.5 °F 30.2 °F 81% 29.53 in 6.2 mi NNW 11.5 mph - N/A   Mostly Cloudy
12:00 PM 35.6 °F 28.6 °F 30.2 °F 81% 29.53 in 6.2 mi NNW 9.2 mph - N/A   Mostly Cloudy
1:00 PM 37.4 °F 28.9 °F 30.2 °F 75% 29.53 in 6.2 mi NW 13.8 mph - N/A   Mostly Cloudy
2:00 PM 39.2 °F 33.0 °F 30.2 °F 70% 29.53 in 6.2 mi NNW 9.2 mph - N/A   Mostly Cloudy
3:00 PM 39.2 °F 32.5 °F 28.4 °F 65% 29.53 in 6.2 mi NW 10.4 mph - N/A   Mostly Cloudy
4:00 PM 37.4 °F 31.4 °F 30.2 °F 75% 29.53 in 6.2 mi NW 8.1 mph - N/A   Mostly Cloudy
5:00 PM 35.6 °F 29.9 °F 28.4 °F 75% 29.56 in 6.2 mi NNW 6.9 mph - N/A   Mostly Cloudy
6:00 PM 33.8 °F 27.7 °F 28.4 °F 81% 29.56 in 6.2 mi NNW 6.9 mph - N/A   Mostly Cloudy
7:00 PM 32.0 °F 24.8 °F 26.6 °F 80% 29.56 in 6.2 mi NW 8.1 mph - N/A   Mostly Cloudy
8:00 PM 30.2 °F 21.9 °F 26.6 °F 86% 29.56 in 6.2 mi North 9.2 mph - N/A   Mostly Cloudy
9:00 PM 28.4 °F 18.5 °F 26.6 °F 93% 29.56 in 6.2 mi North 11.5 mph - N/A   Mostly Cloudy
10:00 PM 28.4 °F 19.7 °F 24.8 °F 86% 29.59 in 5.6 mi North 9.2 mph - N/A   Mostly Cloudy
11:00 PM 28.4 °F 22.2 °F 24.8 °F 86% 29.59 in 5.0 mi NW 5.8 mph - N/A   Mostly Cloudy